• în Republica Moldova
  • Lista ţărilor
  • Pe 7 zile
  • Temperatura apei
  • Hartă satelitară
  • Meteo pe hartă
  • Widget-uri
  • user-avatar
    Intrare

    Meteo pe oră la Kerns

    Astăzi, 29 Mai, Luni

    Timp Temperatura Precipitaţii Vânt Presiune Umiditate
    00:00 +19°C° 0 mm 4 m/s 761 mmHg 97%
    01:00 +19°C° 0 mm 4 m/s 761 mmHg 97%
    02:00 +19°C° 0 mm 4 m/s 761 mmHg 97%
    03:00 +19°C° 0 mm 4 m/s 761 mmHg 97%
    04:00 +19°C° 0 mm 4 m/s 761 mmHg 96%
    05:00 +19°C° 0 mm 4 m/s 761 mmHg 97%
    06:00 +19°C° 0 mm 4 m/s 761 mmHg 97%
    07:00 +19°C° 0 mm 4 m/s 761 mmHg 97%
    08:00 +21°C° 0 mm 5 m/s 762 mmHg 87%
    09:00 +25°C° 0 mm 5 m/s 762 mmHg 76%
    10:00 +27°C° 0 mm 5 m/s 762 mmHg 65%
    11:00 +28°C° 0 mm 6 m/s 762 mmHg 61%
    12:00 +29°C° 0 mm 6 m/s 762 mmHg 58%
    13:00 +30°C° 0 mm 6 m/s 761 mmHg 54%
    14:00 +29°C° 0 mm 6 m/s 761 mmHg 55%
    15:00 +29°C° 0 mm 6 m/s 761 mmHg 57%
    16:00 +28°C° 0 mm 6 m/s 760 mmHg 59%
    17:00 +26°C° 0 mm 5 m/s 761 mmHg 70%
    18:00 +23°C° 0 mm 5 m/s 761 mmHg 82%
    19:00 +20°C° 0 mm 5 m/s 762 mmHg 93%
    20:00 +20°C° 0 mm 5 m/s 762 mmHg 92%
    21:00 +19°C° 0 mm 5 m/s 762 mmHg 91%
    22:00 +19°C° 0 mm 5 m/s 763 mmHg 91%
    23:00 +19°C° 0 mm 5 m/s 763 mmHg 89%

    Mâine, 30 Mai, Marţi

    Timp Temperatura Precipitaţii Vânt Presiune Umiditate
    00:00 +19°C° 0 mm 5 m/s 762 mmHg 87%
    01:00 +19°C° 0 mm 5 m/s 762 mmHg 86%
    02:00 +19°C° 0 mm 5 m/s 762 mmHg 86%
    03:00 +19°C° 0 mm 5 m/s 761 mmHg 86%
    04:00 +19°C° 0 mm 5 m/s 761 mmHg 86%
    05:00 +19°C° 0 mm 5 m/s 761 mmHg 87%
    06:00 +20°C° 0 mm 5 m/s 762 mmHg 88%
    07:00 +20°C° 0 mm 5 m/s 762 mmHg 88%
    08:00 +22°C° 0 mm 6 m/s 762 mmHg 81%
    09:00 +24°C° 0 mm 6 m/s 762 mmHg 73%
    10:00 +27°C° 0 mm 6 m/s 763 mmHg 65%
    11:00 +28°C° 0 mm 6 m/s 762 mmHg 62%
    12:00 +29°C° 0 mm 6 m/s 762 mmHg 60%
    13:00 +30°C° 0 mm 6 m/s 761 mmHg 57%
    14:00 +30°C° 0 mm 6 m/s 761 mmHg 60%
    15:00 +29°C° 0 mm 6 m/s 761 mmHg 64%
    16:00 +28°C° 0 mm 6 m/s 760 mmHg 67%
    17:00 +27°C° 0 mm 6 m/s 761 mmHg 74%
    18:00 +24°C° 0 mm 6 m/s 761 mmHg 82%
    19:00 +23°C° 0 mm 5 m/s 762 mmHg 89%
    20:00 +23°C° 0 mm 5 m/s 762 mmHg 91%
    21:00 +22°C° 0 mm 5 m/s 762 mmHg 92%
    22:00 +22°C° 0 mm 5 m/s 763 mmHg 94%
    23:00 +22°C° 0 mm 5 m/s 762 mmHg 94%

    Poimâine, 31 Mai, Miercuri

    Timp Temperatura Precipitaţii Vânt Presiune Umiditate
    00:00 +23°C° 0 mm 5 m/s 762 mmHg 93%
    01:00 +23°C° 0 mm 5 m/s 762 mmHg 93%
    02:00 +23°C° 0 mm 6 m/s 761 mmHg 94%
    03:00 +23°C° 0 mm 6 m/s 761 mmHg 94%
    04:00 +23°C° 0 mm 6 m/s 761 mmHg 95%
    05:00 +23°C° 0 mm 6 m/s 761 mmHg 95%
    06:00 +23°C° 0 mm 6 m/s 761 mmHg 94%
    07:00 +23°C° 0 mm 6 m/s 761 mmHg 94%
    08:00 +24°C° 0 mm 6 m/s 762 mmHg 88%
    09:00 +26°C° 0 mm 6 m/s 762 mmHg 82%
    10:00 +28°C° 0 mm 6 m/s 762 mmHg 77%
    11:00 +28°C° 0,1 mm 6 m/s 762 mmHg 74%
    12:00 +29°C° 0,1 mm 6 m/s 761 mmHg 71%
    13:00 +30°C° 0,1 mm 7 m/s 761 mmHg 69%
    14:00 +29°C° 0,1 mm 7 m/s 761 mmHg 71%
    15:00 +28°C° 0,1 mm 7 m/s 760 mmHg 74%
    16:00 +28°C° 0,1 mm 7 m/s 760 mmHg 76%
    17:00 +27°C° 0,1 mm 7 m/s 761 mmHg 81%
    18:00 +26°C° 0,1 mm 7 m/s 761 mmHg 86%
    19:00 +24°C° 0,1 mm 7 m/s 762 mmHg 90%
    20:00 +24°C° 0,2 mm 7 m/s 762 mmHg 90%
    21:00 +24°C° 0,2 mm 7 m/s 763 mmHg 90%
    22:00 +24°C° 0,2 mm 7 m/s 763 mmHg 90%
    23:00 +24°C° 0,3 mm 7 m/s 763 mmHg 90%

    1 Iunie, Joi

    Timp Temperatura Precipitaţii Vânt Presiune Umiditate
    00:00 +24°C° 0,3 mm 7 m/s 762 mmHg 90%
    01:00 +24°C° 0,3 mm 7 m/s 762 mmHg 90%
    02:00 +24°C° 0,2 mm 7 m/s 762 mmHg 90%
    03:00 +23°C° 0,2 mm 7 m/s 762 mmHg 89%
    04:00 +23°C° 0,2 mm 8 m/s 761 mmHg 89%
    05:00 +23°C° 0,3 mm 8 m/s 762 mmHg 89%
    06:00 +23°C° 0,3 mm 8 m/s 762 mmHg 88%
    07:00 +23°C° 0,3 mm 8 m/s 763 mmHg 88%
    08:00 +23°C° 0,3 mm 8 m/s 763 mmHg 86%
    09:00 +24°C° 0,3 mm 8 m/s 763 mmHg 84%
    10:00 +24°C° 0,3 mm 8 m/s 764 mmHg 81%
    11:00 +24°C° 0,3 mm 8 m/s 763 mmHg 80%
    12:00 +24°C° 0,3 mm 8 m/s 763 mmHg 79%
    13:00 +24°C° 0,3 mm 8 m/s 762 mmHg 78%
    14:00 +24°C° 0,2 mm 8 m/s 762 mmHg 79%
    15:00 +23°C° 0,2 mm 8 m/s 762 mmHg 80%
    16:00 +23°C° 0,2 mm 8 m/s 762 mmHg 81%
    17:00 +23°C° 0,2 mm 8 m/s 762 mmHg 82%
    18:00 +22°C° 0,2 mm 8 m/s 762 mmHg 83%
    19:00 +22°C° 0,2 mm 8 m/s 763 mmHg 85%
    20:00 +22°C° 0,5 mm 8 m/s 763 mmHg 85%
    21:00 +23°C° 0,5 mm 8 m/s 763 mmHg 86%
    22:00 +23°C° 0,5 mm 8 m/s 764 mmHg 87%
    23:00 +23°C° 0,9 mm 8 m/s 763 mmHg 88%

    2 Iunie, Vineri

    Timp Temperatura Precipitaţii Vânt Presiune Umiditate
    00:00 +23°C° 0,9 mm 8 m/s 763 mmHg 89%
    01:00 +23°C° 0,9 mm 8 m/s 762 mmHg 90%
    02:00 +23°C° 0,8 mm 8 m/s 762 mmHg 89%
    03:00 +23°C° 0,8 mm 9 m/s 762 mmHg 89%
    04:00 +23°C° 0,8 mm 9 m/s 762 mmHg 89%
    05:00 +23°C° 0,4 mm 9 m/s 762 mmHg 89%
    06:00 +23°C° 0,4 mm 9 m/s 763 mmHg 88%
    07:00 +23°C° 0,4 mm 9 m/s 763 mmHg 87%
    08:00 +23°C° 0,3 mm 9 m/s 764 mmHg 85%
    09:00 +24°C° 0,3 mm 9 m/s 764 mmHg 83%
    10:00 +24°C° 0,3 mm 9 m/s 764 mmHg 82%
    11:00 +24°C° 0,1 mm 9 m/s 764 mmHg 82%
    12:00 +24°C° 0,1 mm 8 m/s 763 mmHg 82%
    13:00 +24°C° 0,1 mm 8 m/s 763 mmHg 82%
    14:00 +24°C° 0,1 mm 8 m/s 763 mmHg 83%
    15:00 +23°C° 0,1 mm 8 m/s 763 mmHg 83%
    16:00 +23°C° 0,1 mm 8 m/s 762 mmHg 84%
    17:00 +23°C° 0 mm 8 m/s 763 mmHg 84%
    18:00 +23°C° 0 mm 8 m/s 763 mmHg 83%
    19:00 +23°C° 0 mm 8 m/s 764 mmHg 83%
    20:00 +23°C° 0 mm 8 m/s 764 mmHg 83%
    21:00 +22°C° 0 mm 8 m/s 764 mmHg 84%
    22:00 +22°C° 0 mm 8 m/s 764 mmHg 84%
    23:00 +22°C° 0,1 mm 8 m/s 764 mmHg 85%

    3 Iunie, Sâmbătă

    Timp Temperatura Precipitaţii Vânt Presiune Umiditate
    00:00 +22°C° 0,1 mm 8 m/s 764 mmHg 85%
    01:00 +22°C° 0,1 mm 8 m/s 763 mmHg 86%
    02:00 +22°C° 0,1 mm 8 m/s 763 mmHg 85%
    03:00 +22°C° 0,1 mm 8 m/s 763 mmHg 85%
    04:00 +22°C° 0,1 mm 8 m/s 763 mmHg 84%
    05:00 +22°C° 0 mm 8 m/s 763 mmHg 84%
    06:00 +22°C° 0 mm 8 m/s 763 mmHg 84%
    07:00 +22°C° 0 mm 8 m/s 764 mmHg 84%
    08:00 +22°C° 0,1 mm 8 m/s 764 mmHg 82%
    09:00 +23°C° 0,1 mm 8 m/s 764 mmHg 80%
    10:00 +24°C° 0,1 mm 8 m/s 764 mmHg 78%
    11:00 +24°C° 0,1 mm 8 m/s 763 mmHg 76%
    12:00 +24°C° 0,1 mm 7 m/s 763 mmHg 75%
    13:00 +26°C° 0,1 mm 7 m/s 762 mmHg 73%
    14:00 +24°C° 0,1 mm 7 m/s 762 mmHg 75%
    15:00 +24°C° 0,1 mm 7 m/s 762 mmHg 77%
    16:00 +24°C° 0,1 mm 7 m/s 762 mmHg 79%
    17:00 +23°C° 0,1 mm 7 m/s 762 mmHg 82%
    18:00 +22°C° 0,1 mm 7 m/s 763 mmHg 85%
    19:00 +22°C° 0,1 mm 7 m/s 763 mmHg 89%
    20:00 +22°C° 0,2 mm 7 m/s 763 mmHg 89%
    21:00 +21°C° 0,2 mm 7 m/s 763 mmHg 90%
    22:00 +21°C° 0,2 mm 7 m/s 763 mmHg 91%
    23:00 +21°C° 0,3 mm 7 m/s 763 mmHg 91%
    Arată mai mult